Total_Precipitation_Accumulation
0.22 0.20 0.18 0.15 0.13 0.11 0.09 0.06 0.05 0.03 0.02 0.01 0.00 0.00 0.00 0.00 0.00 0.00 0.00 0.00 0.00 0.00 0.00 0.05 0.17 0.40 0.96 1.33 2.02 2.18 5.92 5.30 2.76 2.77 2.65 1.33 1.22 1.87 1.36 0.61 0.49 0.45 0.34 0.21 0.09
0.19 0.19 0.17 0.16 0.14 0.12 0.08 0.06 0.06 0.03 0.03 0.01 0.00 0.00 0.00 0.01 0.00 0.00 0.00 0.00 0.00 0.01 0.03 0.15 0.20 0.45 0.93 1.07 1.46 3.86 6.69 5.74 3.01 1.59 1.34 0.96 1.33 1.09 0.92 1.25 0.74 0.47 0.36 0.32 0.18
0.18 0.17 0.16 0.16 0.14 0.12 0.09 0.08 0.07 0.05 0.03 0.02 0.00 0.00 0.00 0.00 0.00 0.01 0.02 0.01 0.00 0.04 0.15 0.35 0.51 0.57 0.48 0.95 0.79 2.79 5.22 3.82 3.21 1.32 1.12 1.18 1.34 0.91 0.94 2.28 1.78 1.25 0.74 0.63 0.21
0.18 0.18 0.18 0.16 0.13 0.12 0.10 0.08 0.06 0.05 0.02 0.02 0.00 0.00 0.00 0.00 0.00 0.00 0.00 0.00 0.01 0.07 0.24 0.70 0.34 0.45 0.59 0.62 0.67 2.03 2.43 2.60 2.68 1.15 1.13 1.62 1.35 1.45 1.46 1.75 0.59 0.55 0.24 0.17 0.11
0.19 0.17 0.16 0.15 0.12 0.12 0.09 0.07 0.06 0.05 0.03 0.01 0.01 0.01 0.00 0.00 0.00 0.00 0.00 0.00 0.00 0.02 0.08 0.32 0.63 0.67 1.11 0.88 0.74 1.41 2.44 1.73 2.06 1.66 1.48 1.12 1.09 1.58 1.34 2.50 0.84 0.32 0.12 0.08 0.17
0.18 0.16 0.16 0.15 0.13 0.11 0.09 0.07 0.04 0.03 0.03 0.01 0.02 0.01 0.00 0.00 0.00 0.00 0.00 0.00 0.00 0.01 0.07 0.33 0.47 0.29 1.37 1.21 1.53 1.08 1.62 1.32 1.51 2.19 1.56 1.72 1.23 0.77 1.10 1.04 0.84 0.39 0.16 0.24 0.28
0.19 0.17 0.16 0.15 0.12 0.10 0.07 0.05 0.03 0.02 0.02 0.02 0.03 0.01 0.00 0.00 0.00 0.00 0.00 0.00 0.00 0.01 0.04 0.13 0.10 0.07 0.28 1.67 0.81 1.01 2.04 2.02 1.66 2.03 1.84 2.31 3.64 1.41 1.29 1.07 0.72 0.45 0.48 0.52 0.76
0.17 0.17 0.14 0.14 0.10 0.07 0.04 0.02 0.01 0.01 0.02 0.03 0.03 0.00 0.00 0.00 0.00 0.00 0.00 0.00 0.00 0.00 0.00 0.02 0.03 0.02 0.14 0.56 0.88 2.66 2.90 2.95 2.70 2.25 1.77 2.80 6.10 2.94 1.33 0.91 0.86 0.97 1.14 0.48 1.09
0.16 0.14 0.14 0.12 0.09 0.06 0.02 0.00 0.00 0.01 0.00 0.01 0.00 0.00 0.00 0.00 0.00 0.00 0.00 0.00 0.00 0.00 0.00 0.01 0.04 0.03 0.28 0.93 1.72 2.09 2.57 3.23 3.10 2.51 2.84 3.46 5.71 3.48 1.19 0.77 1.45 2.24 0.88 0.93 1.76
0.16 0.14 0.12 0.12 0.09 0.04 0.00 0.00 0.00 0.00 0.00 0.00 0.00 0.00 0.00 0.00 0.00 0.00 0.00 0.00 0.00 0.01 0.02 0.03 0.04 0.13 0.30 0.39 1.05 1.67 1.18 1.95 2.73 2.34 3.35 3.10 2.15 2.40 1.26 2.24 1.44 1.00 0.53 1.68 2.08
0.16 0.15 0.14 0.10 0.07 0.05 0.01 0.02 0.00 0.00 0.00 0.00 0.00 0.00 0.00 0.00 0.00 0.00 0.00 0.00 0.00 0.00 0.00 0.01 0.01 0.13 0.53 0.21 0.36 0.28 1.08 1.84 2.45 2.45 3.27 2.64 2.13 3.08 1.18 1.80 1.76 0.52 1.14 1.70 1.31
0.16 0.15 0.13 0.08 0.06 0.06 0.01 0.00 0.00 0.00 0.00 0.00 0.00 0.00 0.00 0.00 0.00 0.00 0.00 0.00 0.00 0.00 0.00 0.01 0.01 0.03 0.05 0.06 0.11 0.23 0.95 1.40 2.34 2.03 3.08 5.05 3.68 2.66 1.39 1.19 0.95 0.76 1.62 1.39 0.84
0.17 0.15 0.11 0.06 0.03 0.02 0.00 0.00 0.00 0.00 0.00 0.00 0.00 0.00 0.00 0.00 0.00 0.00 0.00 0.00 0.00 0.00 0.00 0.00 0.01 0.04 0.04 0.07 0.12 0.21 0.38 0.73 1.17 1.29 2.03 3.73 5.13 3.45 1.59 1.59 1.51 1.05 0.96 0.55 0.90
0.17 0.17 0.11 0.03 0.02 0.00 0.00 0.00 0.00 0.00 0.00 0.00 0.00 0.00 0.00 0.00 0.00 0.00 0.00 0.00 0.00 0.00 0.00 0.00 0.00 0.00 0.01 0.03 0.08 0.42 0.28 0.34 0.37 0.50 1.22 0.90 3.46 2.91 1.92 1.78 2.92 1.36 0.93 0.57 0.47
0.16 0.17 0.13 0.04 0.00 0.00 0.00 0.00 0.00 0.00 0.02 0.00 0.00 0.00 0.00 0.00 0.00 0.00 0.00 0.00 0.00 0.00 0.00 0.00 0.00 0.01 0.00 0.00 0.06 0.08 0.13 0.20 0.45 0.48 0.31 0.41 1.08 2.00 1.55 1.70 1.97 1.59 1.20 0.75 0.65
0.16 0.17 0.16 0.02 0.00 0.00 0.00 0.00 0.00 0.00 0.02 0.00 0.00 0.00 0.00 0.00 0.00 0.00 0.00 0.00 0.00 0.00 0.00 0.00 0.00 0.00 0.00 0.00 0.01 0.02 0.12 0.22 0.36 0.53 0.42 0.21 0.25 1.03 0.98 1.11 1.48 0.77 0.94 1.22 0.71
0.12 0.14 0.16 0.00 0.00 0.00 0.00 0.00 0.01 0.02 0.01 0.00 0.00 0.00 0.00 0.00 0.00 0.00 0.00 0.00 0.00 0.00 0.00 0.00 0.00 0.00 0.00 0.01 0.06 0.05 0.17 0.21 0.28 0.21 0.33 0.32 0.54 0.78 0.61 0.55 0.57 0.57 0.94 1.10 1.29
0.06 0.08 0.02 0.00 0.00 0.00 0.00 0.00 0.10 0.05 0.04 0.00 0.00 0.00 0.00 0.00 0.00 0.00 0.00 0.00 0.00 0.00 0.00 0.00 0.00 0.00 0.00 0.00 0.01 0.01 0.01 0.13 0.36 0.34 0.41 0.51 0.72 0.55 0.15 0.13 0.23 0.35 0.60 0.48 0.47
0.01 0.00 0.00 0.00 0.00 0.00 0.00 0.07 0.11 0.09 0.06 0.00 0.00 0.00 0.00 0.00 0.00 0.00 0.00 0.00 0.00 0.00 0.00 0.00 0.00 0.00 0.00 0.00 0.00 0.01 0.03 0.04 0.06 0.11 0.08 0.45 1.09 0.92 0.46 0.22 0.29 0.16 0.36 0.46 0.43
0.00 0.00 0.00 0.00 0.00 0.00 0.03 0.08 0.03 0.03 0.05 0.00 0.00 0.00 0.01 0.00 0.00 0.00 0.00 0.01 0.00 0.00 0.00 0.00 0.01 0.00 0.00 0.02 0.06 0.07 0.16 0.07 0.03 0.08 0.13 0.41 0.88 2.07 1.29 0.95 0.61 0.41 0.24 0.55 0.63
0.00 0.00 0.00 0.00 0.00 0.00 0.24 0.11 0.00 0.02 0.04 0.01 0.00 0.00 0.01 0.02 0.02 0.02 0.05 0.02 0.01 0.00 0.00 0.00 0.01 0.02 0.02 0.06 0.05 0.05 0.04 0.04 0.03 0.05 0.22 0.57 0.83 1.01 1.65 0.69 0.46 0.63 0.52 0.69 0.79
0.00 0.00 0.00 0.00 0.00 0.01 0.08 0.02 0.00 0.02 0.04 0.02 0.01 0.00 0.01 0.06 0.03 0.09 0.16 0.12 0.01 0.00 0.00 0.00 0.00 0.01 0.01 0.02 0.03 0.20 0.11 0.15 0.03 0.15 0.29 0.39 0.78 1.00 1.61 0.80 0.45 0.47 0.47 0.62 0.93
0.03 0.00 0.00 0.00 0.02 0.08 0.01 0.00 0.01 0.02 0.02 0.02 0.05 0.06 0.03 0.02 0.05 0.09 0.12 0.07 0.04 0.01 0.03 0.08 0.05 0.02 0.03 0.03 0.04 0.01 0.03 0.10 0.11 0.08 0.19 0.22 0.41 0.37 0.51 0.55 0.52 0.48 0.27 0.31 0.90
0.11 0.09 0.00 0.00 0.00 0.01 0.03 0.05 0.03 0.02 0.04 0.03 0.09 0.08 0.04 0.03 0.02 0.17 0.09 0.06 0.03 0.04 0.11 0.15 0.03 0.02 0.08 0.09 0.09 0.03 0.00 0.02 0.02 0.02 0.04 0.10 0.11 0.22 0.19 0.76 1.06 0.37 0.35 0.23 0.47
0.19 0.72 0.10 0.03 0.00 0.04 0.11 0.11 0.07 0.08 0.04 0.06 0.20 0.21 0.10 0.09 0.06 0.16 0.10 0.02 0.03 0.05 0.09 0.08 0.02 0.00 0.01 0.02 0.02 0.04 0.04 0.01 0.05 0.01 0.05 0.11 0.08 0.37 0.75 1.01 0.94 0.60 0.50 0.54 0.53
0.18 0.44 0.25 0.16 0.06 0.04 0.07 0.12 0.11 0.05 0.05 0.04 0.17 0.18 0.17 0.26 0.25 0.25 0.25 0.13 0.17 0.25 0.15 0.06 0.02 0.01 0.01 0.00 0.00 0.02 0.02 0.01 0.05 0.07 0.14 0.12 0.22 0.62 0.92 0.74 0.79 0.80 0.85 0.83 1.13
0.21 0.24 0.39 0.22 0.11 0.25 0.19 0.19 0.16 0.30 0.28 0.25 0.39 0.45 0.34 0.34 0.42 0.49 0.28 0.23 0.21 0.42 0.29 0.14 0.14 0.11 0.04 0.01 0.01 0.01 0.04 0.02 0.02 0.06 0.16 0.25 0.57 1.19 0.76 0.73 0.82 1.08 1.82 2.21 1.76